Location: Pe�acaballera
(40.3500°N, 5.8500°W)
Time: 11:59:57
(UTC+01:00)

ISS - Visible Passes

Search period start: 15 December 2019 00:00
Search period end: 25 December 2019 00:00
Orbit: 411 x 421 km, 51.6° (Epoch: 15 December)

Date Brightness Start Highest point End Pass type
(mag) Time Alt. Az. Time Alt. Az. Time Alt. Az.
19 Dec -0.4 07:53:40 10° SSE 07:55:33 14° SE 07:57:25 10° E visible
21 Dec -2.3 07:51:45 10° SSW 07:54:52 41° SE 07:58:01 10° ENE visible
22 Dec -1.3 07:03:45 10° S 07:06:26 23° SE 07:09:07 10° E visible
23 Dec -0.7 06:16:42 11° SSE 06:18:02 13° SE 06:19:40 10° E visible
23 Dec -3.8 07:51:05 10° WSW 07:54:22 67° NW 07:57:41 10° NE visible
24 Dec -3.6 07:04:26 32° SW 07:05:47 69° SE 07:09:05 10° ENE visible
